NUSAT-4 (ADA) (43195 NORAD) Tracking and Keplerian Element Data

This shows tracking and keplerian element data for the satellite.

Feedback or suggestion? Click here.




ElementValue
Catalog43195
NameNUSAT-4 (ADA)
Epoch Orbit6676
Epoch Day106.86019291
Epoch Year2019
RAAN235.3221
Inclination97.3842
Eccentricity0.0018466
Argument of Perigee156.045
Mean Anonmoly321.4458
Mean Motion15.23633606
Decay Rate1.746E-05
L11 43195U 18015D 19106.86019291 .00001746 00000-0 75552-4 0 9996
L22 43195 97.3842 235.3221 0018466 156.0450 321.4458 15.23633606 66768

Live tracking and technical data element details for NUSAT-4 (ADA) (NORAD 43195). NUSAT-4 (ADA) can be tracked NOW for your location showing map with azimuth and elevation plus other details from your city location.

Track the satellite on the map from your city or location and see movement details for azimuth, elevation, latitude, longitude, range, height, and movement on the map or in text.







IsCatalogInMostPopularTable: catalog: 43195, numindb: 206
Update: records affected: 1



GetName: 43195 NUSAT-4 (ADA)

Hit Count: updated at: Sat, 20 Apr 2019 00:22:10 GMT